Regional Weather Roundup
Issued by NWS

Home | Current Version | Previous Version | Graphics & Text | Print | Product List | Glossary Off
Versions: 1 2 3 4 5 6 7 8 9 10 11 12 13 14 15 16 17 18 19 20 21 22 23 24 25 26 27 28 29 30 31 32 33 34 35 36 37 38 39 40 41 42 43 44 45 46 47 48 49 50

000
ASUS43 KMKX 190400
RWRWI

WISCONSIN REGIONAL WEATHER ROUNDUP
NATIONAL WEATHER SERVICE MILWAUKEE/SULLIVAN WI
1100 PM CDT THU SEP 18 2014

NOTE: "FAIR" INDICATES FEW OR NO CLOUDS BELOW 12,000 FEET WITH NO
SIGNIFICANT WEATHER AND/OR OBSTRUCTIONS TO VISIBILITY.

WIZ001-002-006>008-014>016-023>028-190500-
NORTHWEST WISCONSIN

CITY           SKY/WX    TMP DP  RH WIND       PRES   REMARKS
SUPERIOR ARPT  PTCLDY    47  46  98 CALM      30.02F
ASHLAND        PTCLDY    40  38  93 CALM      30.04F
HAYWARD        CLEAR     53  51  93 S8        30.04F
SIREN          CLEAR     56  53  88 S12G20    30.01S
RICE LAKE      CLEAR     53  50  91 SE13      30.06F
LADYSMITH      CLEAR     49  48  95 SE6       30.09F FOG
EAU CLAIRE     NOT AVBL
MENOMONIE      CLEAR     55  53  94 SE7       30.05F
NEW RICHMOND   CLEAR     58  55  92 SE10G16   30.02S
OSCEOLA        CLEAR     59  58  95 SE14G20   30.02F
$$

WIZ003>005-009-010-017-018-190500-
NORTH CENTRAL WISCONSIN

CITY           SKY/WX    TMP DP  RH WIND       PRES   REMARKS
WOODRUFF       CLEAR     52  49  91 S7        30.11S
RHINELANDER    CLEAR     46  45  96 SE5       30.14S
EAGLE RIVER    CLEAR     46  46  99 CALM      30.13R
LAND O LAKES   CLEAR     46  46  98 S3        30.13S
PHILLIPS       CLEAR     48  47  94 SE8       30.09F
TOMAHAWK       CLEAR     46  45  97 SE3       30.13F
MEDFORD        CLEAR     48  47  96 SE6       30.12S
MERRILL        CLEAR     47  47  98 SE6       30.13F
$$

WIZ029-030-035-036-043>047-190500-
CENTRAL WISCONSIN

CITY           SKY/WX    TMP DP  RH WIND       PRES   REMARKS
WAUSAU         CLEAR     46  45  96 SE6       30.13F
MOSINEE        CLEAR     45  45 100 E7        30.14F FOG
MARSHFIELD     CLEAR     50  48  93 SE6       30.13S
STEVENS POINT  CLEAR     44  43  96 CALM      30.15S FOG
WAUPACA        CLEAR     48  47  95 E3        30.16F FOG
WAUTOMA        FOG       46  45  93 CALM      30.16S VSB 1
WISC RAPIDS    CLEAR     50  48  93 SE7       30.14F
CAMP DOUGLAS   NOT AVBL
$$

WIZ011>013-019>022-031-037>040-048>050-190500-
NORTHEAST WISCONSIN

CITY           SKY/WX    TMP DP  RH WIND       PRES   REMARKS
ANTIGO         PTCLDY    45  44  97 S7        30.15F FOG
STURGEON BAY   CLEAR     45  41  87 CALM      30.19R
GREEN BAY      CLEAR     45  45 100 CALM      30.17S FOG
MANITOWOC      NOT AVBL
APPLETON       PTCLDY    50  46  87 SE7       30.17R
CLINTONVILLE   CLEAR     45  45 100 CALM      30.16S FOG
OSHKOSH        CLEAR     49  47  93 SE3       30.16S
$$

WIZ032>034-041-042-053>061-190500-
SOUTHWEST WISCONSIN

CITY           SKY/WX    TMP DP  RH WIND       PRES   REMARKS
LA CROSSE      CLEAR     58  53  84 SE7       30.09S
SPARTA         NOT AVBL
VIROQUA        FAIR      55  55 100 SE6       30.11F
BOSCOBEL       CLEAR     54  52  93 CALM      30.12S FOG
PRAIRIE DU CHI CLEAR     58  51  78 CALM      30.11R
PLATTEVILLE    FAIR      55  51  89 CALM      30.14R
$$

WIZ056-057-062-063-064-067-068-190500-
SOUTH CENTRAL WISCONSIN

CITY           SKY/WX    TMP DP  RH WIND       PRES   REMARKS
BARABOO/DELLS  CLEAR     49  48  93 CALM      30.14R
LONE ROCK      NOT AVBL
WATERTOWN      CLEAR     49  49 100 CALM      30.16S FOG
MADISON        PTCLDY    53  51  93 SE6       30.15S
MIDDLETON      FAIR      55  55  99 SE6       30.16R
MONROE         CLEAR     54  52  94 E5        30.15R
JANESVILLE     CLEAR     52  50  93 CALM      30.15R FOG
$$

WIZ051-052-058>065-066-070>072-190500-
SOUTHEAST WISCONSIN

CITY           SKY/WX    TMP DP  RH WIND       PRES   REMARKS
MILWAUKEE      CLEAR     53  50  89 CALM      30.17S
WAUKESHA       CLOUDY    48  46  93 NE5       30.18S FOG
MILWAUKEE/TIMM CLOUDY    54  50  87 CALM      30.18S
RACINE         CLEAR     52  49  89 CALM      30.18S
BURLINGTON     CLEAR     49  48  98 CALM      30.17S FOG
KENOSHA        CLEAR     50  49  96 NE5       30.17R FOG
FOND DU LAC    CLEAR     49  46  90 SE6       30.17S
SHEBOYGAN      CLEAR     44  42  93 CALM      30.18R
WEST BEND      MOCLDY    45  43  93 CALM      30.18S FOG
JUNEAU         CLEAR     49  48  97 E7        30.17S FOG
$$

LSZ147-162-190500-
LAKE SUPERIOR

STATION/POSITION TIME  TEMP    WIND        PRES    WAVE
                       AIR SEA DIR/SP/G            HT/PER
                 (UTC) (F)     (DEG/KT/KT) (MB)    (FT/S)
W MID LAKE BUOY  0250   47 46  110/  8/  8 1018.6F   1/ 4
DEVILS ISLAND    0300   49      80/  9/ 10 1018.5F
PORT WING        0300   47      40/  7/  8 1017.3F
SAXON HARBOR     0340   43      CALM  / 24 1017.3F
$$

LMZ867-665-643>646-190500-
LAKE MICHIGAN

STATION/POSITION TIME  TEMP    WIND        PRES    WAVE
                       AIR SEA DIR/SP/G            HT/PER
                 (UTC) (F)     (DEG/KT/KT) (MB)    (FT/S)
N MID LAKE BUOY  0250   54 58  130/  6/  8 1022.0F   0
NORTHPORT PIER   0300   53     120/  3/  8 1021.7S
KEWAUNEE LAKESHO 0300   53     120/  3/  5 1020.6F
SHEBOYGAN LAKESH 0300   52 49   20/  3/  4 1022.3R
PORT WASHINGTON  0300   51     270/  2/  3 1022.4
ATWATER BUOY     0300   57      60/  4/  6 1022.5F
MILWAUKEE LAKESH 0300   56      40/  4/  6   N/A
S MID LAKE BUOY  0250   61 64   30/ 10/ 12 1021.7R   2/ 5
KENOSHA   LAKESH 0300   56      10/  8/  9 1021.0S
$$

TC  - TEMPERATURE IN CELSIUS
VSB - VISIBILITY IN STATUTE MILES
WCI - WIND CHILL INDEX
HX  - HEAT INDEX




USA.gov is the U.S. government's official web portal to all federal, state and local government web resources and services.